EW9434 Weather Reports


time (UTC)temp
C
wind
direction
speed
KPH
gust
KPH
rain 1hr
cm
rain 24hr
cm
rain mn
cm
humidity
%
barometer
mb
20260504004556 15 285 8.0 19.3 0.00 0.00 0.00 41 1012.0
20260504004525 15 284 6.4 17.7 0.00 0.00 0.00 41 1012.6
20260504004052 15 286 8.0 19.3 0.00 0.00 0.00 41 1012.1
20260504003549 15 286 8.0 20.9 0.00 0.00 0.00 41 1012.0
20260504003240 15 285 4.8 20.9 0.00 0.00 0.00 41 1012.0
20260504003102 15 286 9.7 20.9 0.00 0.00 0.00 41 1012.6
20260504002457 15 286 4.8 17.7 0.00 0.00 0.00 41 1012.0
20260504001929 15 287 6.4 24.1 0.00 0.00 0.00 41 1012.1
20260504001554 15 286 8.0 24.1 0.00 0.00 0.00 40 1012.7
20260504001405 15 286 8.0 24.1 0.00 0.00 0.00 41 1012.0
20260504000838 15 286 8.0 19.3 0.00 0.00 0.00 40 1011.9
20260504000311 15 287 8.0 19.3 0.00 0.00 0.00 40 1011.8
20260504000021 15 286 6.4 19.3 0.00 0.00 0.00 41 1012.4
20260504000010 15 286 6.4 17.7 0.00 0.00 0.00 40 1011.8
20260503235244 15 288 6.4 17.7 0.00 0.00 0.00 39 1011.8
20260503234713 15 286 8.0 17.7 0.00 0.00 0.00 40 1011.8
20260503234511 15 286 6.4 17.7 0.00 0.00 0.00 39 1012.4
20260503234212 15 286 6.4 17.7 0.00 0.00 0.00 40 1011.7
20260503234132 15 287 6.4 17.7 0.00 0.00 0.00 40 1011.7
20260503233345 15 286 6.4 17.7 0.00 0.00 0.00 40 1011.8
20260503233048 15 286 4.8 17.7 0.00 0.00 0.00 40 1012.5
20260503232551 15 286 6.4 17.7 0.00 0.00 0.00 40 1012.0
20260503232309 15 290 6.4 14.5 0.00 0.00 0.00 40 1012.0
20260503231539 15 288 3.2 14.5 0.00 0.00 0.00 40 1012.8
20260503231521 15 289 6.4 16.1 0.00 0.00 0.00 40 1012.2
20260503231020 15 288 6.4 17.7 0.00 0.00 0.00 39 1012.3
20260503230451 15 289 6.4 17.7 0.00 0.00 0.00 39 1012.4
20260503230040 15 285 6.4 19.3 0.00 0.00 0.00 39 1013.2
20260503225950 15 286 8.0 19.3 0.00 0.00 0.00 39 1012.6
20260503225715 15 286 9.7 19.3 0.00 0.00 0.00 38 1012.7
20260503224944 15 285 8.0 19.3 0.00 0.00 0.00 38 1012.8
20260503224707 15 285 8.0 19.3 0.00 0.00 0.00 39 1012.8
20260503224615 15 286 9.7 19.3 0.00 0.00 0.00 38 1013.5
20260503223943 15 286 8.0 22.5 0.00 0.00 0.00 38 1013.0
20260503223443 15 285 9.7 22.5 0.00 0.00 0.00 38 1013.1
20260503223211 15 286 8.0 20.9 0.00 0.00 0.00 38 1013.2
20260503223023 15 286 11.3 22.5 0.00 0.00 0.00 38 1013.7
20260503222416 15 286 9.7 25.7 0.00 0.00 0.00 39 1013.3
20260503221915 15 286 11.3 25.7 0.00 0.00 0.00 38 1013.3
20260503221537 15 287 11.3 25.7 0.00 0.00 0.00 37 1014.0
20260503221408 16 288 9.7 25.7 0.00 0.00 0.00 38 1013.5
20260503221308 16 91 6.4 19.3 0.00 0.00 0.00 39 1013.4
20260503220937 16 286 8.0 17.7 0.00 0.00 0.00 39 1013.4
20260503220027 16 189 6.4 19.3 0.00 0.00 0.00 40 1014.1
20260503215837 16 300 6.4 19.3 0.00 0.00 0.00 39 1013.5
20260503215310 16 285 6.4 14.5 0.00 0.00 0.00 40 1013.5
20260503214807 16 287 6.4 16.1 0.00 0.00 0.00 38 1013.5
20260503214538 15 288 3.2 16.1 0.00 0.00 0.00 40 1014.2
20260503214244 16 285 6.4 17.7 0.00 0.00 0.00 39 1013.5
20260503213712 15 284 4.8 17.7 0.00 0.00 0.00 37 1013.5
20260503213211 15 288 4.8 17.7 0.00 0.00 0.00 37 1013.5
20260503213055 15 286 4.8 17.7 0.00 0.00 0.00 39 1014.2
20260503212646 15 284 4.8 14.5 0.00 0.00 0.00 38 1013.5
20260503212117 15 287 6.4 14.5 0.00 0.00 0.00 37 1013.6
20260503211615 15 286 8.0 16.1 0.00 0.00 0.00 38 1013.6
20260503211544 15 286 4.8 17.7 0.00 0.00 0.00 38 1014.3
20260503211328 15 286 6.4 25.7 0.00 0.00 0.00 38 1014.0
20260503210602 15 284 4.8 25.7 0.00 0.00 0.00 37 1014.0
20260503210033 15 286 4.8 19.3 0.00 0.00 0.00 39 1014.8
20260503205537 15 286 8.0 19.3 0.00 0.00 0.00 39 1014.4
20260503205035 15 287 6.4 17.7 0.00 0.00 0.00 38 1014.7
20260503204728 15 288 6.4 22.5 0.00 0.00 0.00 38 1014.6
20260503204606 15 286 4.8 16.1 0.00 0.00 0.00 39 1015.3
20260503203939 15 286 8.0 22.5 0.00 0.00 0.00 39 1014.6
20260503203437 15 286 8.0 22.5 0.00 0.00 0.00 38 1014.6
20260503203041 15 286 9.7 22.5 0.00 0.00 0.00 38 1015.1
20260503202911 15 285 8.0 22.5 0.00 0.00 0.00 37 1014.4
20260503202627 15 285 9.7 27.4 0.00 0.00 0.00 37 1014.4
20260503201904 15 286 8.0 27.4 0.00 0.00 0.00 37 1014.5
20260503201551 15 286 3.2 17.7 0.00 0.00 0.00 38 1015.1
20260503201359 15 284 8.0 25.7 0.00 0.00 0.00 39 1014.5
20260503200902 15 287 9.7 25.7 0.00 0.00 0.00 38 1014.6
20260503200837 15 287 9.7 27.4 0.00 0.00 0.00 37 1014.5
20260503200043 15 159 6.4 27.4 0.00 0.00 0.00 37 1015.2
20260503195853 15 79 9.7 27.4 0.00 0.00 0.00 37 1014.4
20260503195348 16 132 9.7 20.9 0.00 0.00 0.00 37 1014.6
20260503195338 16 188 9.7 20.9 0.00 0.00 0.00 37 1014.6
20260503194511 16 118 6.4 22.5 0.00 0.00 0.00 37 1015.4
20260503194321 16 222 9.7 24.1 0.00 0.00 0.00 36 1014.8
20260503193818 16 154 9.7 24.1 0.00 0.00 0.00 38 1015.0
20260503193315 16 104 11.3 24.1 0.00 0.00 0.00 36 1015.2
20260503193040 16 159 9.7 24.1 0.00 0.00 0.00 36 1016.0
20260503192746 16 141 9.7 24.1 0.00 0.00 0.00 37 1015.3
20260503192246 16 209 9.7 29.0 0.00 0.00 0.00 36 1015.3
20260503191718 16 203 8.0 29.0 0.00 0.00 0.00 37 1015.4
20260503191532 15 125 8.0 17.7 0.00 0.00 0.00 38 1016.3
20260503191439 15 74 9.7 24.1 0.00 0.00 0.00 37 1015.4
20260503190711 15 121 9.7 25.7 0.00 0.00 0.00 39 1015.6
20260503190210 15 171 9.7 25.7 0.00 0.00 0.00 38 1015.6
20260503190033 15 211 8.0 25.7 0.00 0.00 0.00 38 1016.3
20260503185643 15 118 8.0 25.7 0.00 0.00 0.00 38 1015.7
20260503185139 15 93 9.7 19.3 0.00 0.00 0.00 43 1015.8
20260503184611 15 107 9.7 24.1 0.00 0.00 0.00 37 1015.9
20260503184519 15 165 8.0 24.1 0.00 0.00 0.00 37 1016.7
20260503184110 15 125 9.7 24.1 0.00 0.00 0.00 38 1016.0
20260503183543 15 76 9.7 24.1 0.00 0.00 0.00 37 1016.2
20260503183055 15 138 8.0 24.1 0.00 0.00 0.00 38 1017.0
20260503183037 15 200 9.7 24.1 0.00 0.00 0.00 38 1016.2
20260503182536 15 161 9.7 25.7 0.00 0.00 0.00 37 1016.1
20260503182034 15 20 11.3 29.0 0.00 0.00 0.00 35 1016.2
20260503181547 15 113 11.3 29.0 0.00 0.00 0.00 36 1017.1
20260503181509 16 131 9.7 27.4 0.00 0.00 0.00 36 1016.3
20260503181004 16 151 8.0 24.1 0.00 0.00 0.00 39 1016.3
20260503180501 15 99 9.7 24.1 0.00 0.00 0.00 38 1016.4
20260503180153 15 84 9.7 27.4 0.00 0.00 0.00 36 1016.5
20260503175433 15 75 9.7 27.4 0.00 0.00 0.00 37 1016.5
20260503174906 15 123 9.7 24.1 0.00 0.00 0.00 38 1016.6
20260503174506 15 187 12.9 25.7 0.00 0.00 0.00 38 1017.3
20260503174339 15 126 9.7 25.7 0.00 0.00 0.00 38 1016.5
20260503174100 15 137 9.7 25.7 0.00 0.00 0.00 37 1016.7
20260503173312 15 165 9.7 25.7 0.00 0.00 0.00 38 1016.8
20260503173002 15 90 9.7 22.5 0.00 0.00 0.00 37 1017.7
20260503172813 15 63 9.7 25.7 0.00 0.00 0.00 38 1016.8
20260503172249 15 60 9.7 25.7 0.00 0.00 0.00 38 1017.0
20260503171723 15 167 11.3 25.7 0.00 0.00 0.00 42 1017.2
20260503171541 14 132 11.3 25.7 0.00 0.00 0.00 36 1017.9
20260503171412 15 216 9.7 20.9 0.00 0.00 0.00 37 1017.3
20260503170651 15 91 11.3 24.1 0.00 0.00 0.00 38 1017.5
20260503170148 15 145 11.3 27.4 0.00 0.00 0.00 40 1017.5
20260503150923 12 112 8.0 20.9 0.00 0.00 0.00 50 1018.8
20260503150622 12 193 9.7 24.1 0.00 0.00 0.00 47 1018.8
20260503150124 12 210 9.7 24.1 0.00 0.00 0.00 46 1018.8
20260503131329 7 135 4.8 12.9 0.00 0.00 0.00 67 1018.8
20260503131052 7 273 3.2 8.0 0.00 0.00 0.00 73 1018.8
20260503130547 7 273 4.8 8.0 0.00 0.00 0.00 73 1018.8
20260503110754 3 305 0.0 4.8 0.00 0.00 0.00 82 1018.3
20260503110252 3 301 1.6 4.8 0.00 0.00 0.00 82 1018.2
20260503100109 2 306 0.0 3.2 0.00 0.00 0.00 86 1018.5
20260503090148 3 286 0.0 4.8 0.00 0.00 0.00 84 1017.7
20260503081539 3 284 0.0 4.8 0.00 0.00 0.00 83 1018.4
20260503081515 3 284 0.0 4.8 0.00 0.00 0.00 83 1017.6
20260503081256 3 284 1.6 3.2 0.00 0.00 0.00 83 1017.6
20260503080450 3 284 1.6 4.8 0.00 0.00 0.00 83 1017.5
20260503072734 3 284 0.0 1.6 0.00 0.00 0.00 84 1017.5
20260503072227 3 284 0.0 1.6 0.00 0.00 0.00 84 1017.5
20260503071725 3 284 0.0 1.6 0.00 0.00 0.00 84 1017.5
20260503071603 2 284 0.0 1.6 0.00 0.00 0.00 84 1018.3
20260503071159 3 284 0.0 1.6 0.00 0.00 0.00 84 1017.5
20260503070629 3 284 0.0 1.6 0.00 0.00 0.00 83 1017.6
20260503070345 3 284 0.0 1.6 0.00 0.00 0.00 83 1017.6
20260503060109 3 284 0.0 1.6 0.00 0.00 0.00 78 1018.6
20260503054802 4 284 0.0 1.6 0.00 0.00 0.00 77 1017.9
20260503054557 4 284 0.0 1.6 0.00 0.00 0.00 76 1018.7
20260503054238 4 284 0.0 3.2 0.00 0.00 0.00 76 1017.9
20260503053711 5 284 0.0 3.2 0.00 0.00 0.00 75 1017.9
20260503053204 5 284 0.0 3.2 0.00 0.00 0.00 75 1017.8
20260503053002 4 284 0.0 3.2 0.00 0.00 0.00 75 1018.7
20260503052706 5 284 0.0 4.8 0.00 0.00 0.00 75 1017.9
20260503052144 5 284 1.6 4.8 0.00 0.00 0.00 75 1017.9
20260503051858 5 284 0.0 3.2 0.00 0.00 0.00 75 1017.9
20260503051523 4 284 0.0 1.6 0.00 0.00 0.00 75 1018.7
20260503051341 5 284 0.0 3.2 0.00 0.00 0.00 74 1017.9
20260503050821 5 284 0.0 3.2 0.00 0.00 0.00 74 1017.8
20260503050050 5 284 0.0 3.2 0.00 0.00 0.00 73 1017.9
20260503050020 5 283 0.0 3.2 0.00 0.00 0.00 73 1018.7
20260503045524 5 284 0.0 1.6 0.00 0.00 0.00 72 1017.9
20260503045014 5 284 0.0 1.6 0.00 0.00 0.00 71 1017.9
20260503044733 5 284 0.0 4.8 0.00 0.00 0.00 71 1017.8
20260503044546 5 284 0.0 3.2 0.00 0.00 0.00 71 1018.7
20260503044011 5 283 1.6 4.8 0.00 0.00 0.00 70 1017.8
20260503043511 5 283 1.6 4.8 0.00 0.00 0.00 70 1017.9
20260503043212 5 283 0.0 3.2 0.00 0.00 0.00 70 1017.9
20260503043025 5 283 1.6 4.8 0.00 0.00 0.00 70 1018.7
20260503042422 5 283 0.0 3.2 0.00 0.00 0.00 70 1018.0
20260503041855 5 283 0.0 3.2 0.00 0.00 0.00 69 1017.9
20260503041544 5 283 0.0 3.2 0.00 0.00 0.00 68 1018.7
20260503041353 5 282 0.0 3.2 0.00 0.00 0.00 68 1017.9
20260503040849 5 282 0.0 1.6 0.00 0.00 0.00 68 1017.9
20260503040352 5 282 0.0 0.0 0.00 0.00 0.00 67 1017.9
20260503040006 5 282 0.0 0.0 0.00 0.00 0.00 66 1018.7
20260503035836 5 282 0.0 0.0 0.00 0.00 0.00 66 1017.9
20260503035336 5 282 0.0 1.6 0.00 0.00 0.00 66 1017.8
20260503034833 5 282 0.0 1.6 0.00 0.00 0.00 66 1017.9
20260503034540 5 282 0.0 1.6 0.00 0.00 0.00 66 1018.6
20260503034332 5 282 0.0 1.6 0.00 0.00 0.00 66 1017.8
20260503033832 5 282 0.0 1.6 0.00 0.00 0.00 66 1017.8
20260503033329 5 282 0.0 1.6 0.00 0.00 0.00 64 1017.8
20260503033038 5 282 0.0 1.6 0.00 0.00 0.00 62 1018.6
20260503032803 5 282 0.0 0.0 0.00 0.00 0.00 61 1017.8
20260503032236 5 282 0.0 0.0 0.00 0.00 0.00 61 1017.8
20260503031731 6 282 0.0 0.0 0.00 0.00 0.00 58 1017.9
20260503031206 6 282 0.0 0.0 0.00 0.00 0.00 57 1017.9
20260503030701 6 282 0.0 1.6 0.00 0.00 0.00 57 1017.9
20260503030042 6 282 0.0 0.0 0.00 0.00 0.00 57 1018.6
20260503025633 6 282 0.0 1.6 0.00 0.00 0.00 57 1017.9
20260503025108 6 282 0.0 1.6 0.00 0.00 0.00 57 1017.9
20260503024543 6 282 0.0 1.6 0.00 0.00 0.00 57 1017.9
20260503024514 6 282 0.0 1.6 0.00 0.00 0.00 57 1018.7
20260503024014 6 282 0.0 1.6 0.00 0.00 0.00 57 1017.9
20260503023447 6 282 0.0 1.6 0.00 0.00 0.00 58 1017.9
20260503023147 6 282 0.0 3.2 0.00 0.00 0.00 58 1017.9
20260503023056 6 282 0.0 3.2 0.00 0.00 0.00 58 1018.7
20260503022352 6 282 0.0 1.6 0.00 0.00 0.00 59 1017.9
20260503021847 6 282 0.0 1.6 0.00 0.00 0.00 59 1017.9
20260503021608 6 282 0.0 3.2 0.00 0.00 0.00 59 1017.8
20260503021535 6 282 0.0 1.6 0.00 0.00 0.00 59 1018.6
20260503020821 6 282 1.6 4.8 0.00 0.00 0.00 59 1017.8
20260503020251 6 282 0.0 4.8 0.00 0.00 0.00 59 1017.7
20260503020049 6 282 0.0 3.2 0.00 0.00 0.00 59 1018.5
20260503015749 6 282 0.0 3.2 0.00 0.00 0.00 59 1017.7
20260503015245 6 282 0.0 3.2 0.00 0.00 0.00 59 1017.6
20260503014743 6 282 1.6 3.2 0.00 0.00 0.00 59 1017.6
20260503014608 6 282 0.0 3.2 0.00 0.00 0.00 59 1018.4
20260503014240 7 282 1.6 4.8 0.00 0.00 0.00 59 1017.6
20260503013233 7 282 1.6 4.8 0.00 0.00 0.00 59 1017.5
20260503013039 6 282 1.6 4.8 0.00 0.00 0.00 58 1018.2
20260503012731 7 282 1.6 3.2 0.00 0.00 0.00 58 1017.4
20260503012204 7 282 1.6 4.8 0.00 0.00 0.00 58 1017.4
20260503011700 7 283 1.6 4.8 0.00 0.00 0.00 57 1017.3
20260503011553 7 282 0.0 4.8 0.00 0.00 0.00 57 1018.0
20260503011151 7 283 1.6 4.8 0.00 0.00 0.00 57 1017.3
20260503010622 7 283 1.6 4.8 0.00 0.00 0.00 57 1017.2
20260503010121 7 283 1.6 4.8 0.00 0.00 0.00 56 1017.2
20260503010008 7 284 0.0 3.2 0.00 0.00 0.00 56 1017.9
20260503005832 7 282 1.6 4.8 0.00 0.00 0.00 56 1017.2
20260503005315 7 282 1.6 4.8 0.00 0.00 0.00 55 1017.1